QPF
0.00 0.00 0.00 0.00 0.02 0.08 0.08 0.03 0.01 0.01 0.00 0.00 0.00 0.00 0.00 0.00 0.02 0.04 0.00 0.00 0.00 0.00 0.00 0.00 0.00 0.00 0.00 0.00 0.01 0.01 0.01 0.02 0.02 0.02 0.01 0.01 0.01 0.01 0.00 0.01 0.01 0.01 0.01 0.01 0.01 0.01 0.01 0.01 0.01
0.00 0.00 0.00 0.00 0.05 0.14 0.14 0.07 0.02 0.01 0.00 0.00 0.00 0.00 0.01 0.00 0.00 0.00 0.00 0.00 0.00 0.00 0.00 0.00 0.00 0.00 0.00 0.00 0.01 0.01 0.01 0.02 0.02 0.02 0.02 0.02 0.02 0.02 0.01 0.01 0.01 0.01 0.01 0.01 0.01 0.01 0.01 0.01 0.01
0.00 0.00 0.00 0.00 0.02 0.06 0.08 0.07 0.03 0.00 0.00 0.00 0.00 0.00 0.00 0.00 0.00 0.00 0.00 0.00 0.00 0.00 0.02 0.01 0.00 0.00 0.00 0.00 0.00 0.01 0.01 0.01 0.01 0.01 0.01 0.02 0.02 0.02 0.02 0.02 0.02 0.01 0.01 0.01 0.01 0.01 0.01 0.01 0.01
0.00 0.00 0.00 0.01 0.02 0.02 0.02 0.03 0.02 0.00 0.00 0.00 0.00 0.01 0.01 0.00 0.00 0.00 0.00 0.00 0.00 0.00 0.04 0.02 0.00 0.00 0.00 0.00 0.00 0.00 0.01 0.01 0.01 0.01 0.01 0.01 0.01 0.01 0.01 0.02 0.02 0.01 0.01 0.01 0.01 0.02 0.01 0.01 0.00
0.00 0.00 0.00 0.02 0.05 0.04 0.03 0.03 0.02 0.01 0.00 0.00 0.01 0.02 0.02 0.01 0.00 0.00 0.00 0.00 0.00 0.00 0.01 0.00 0.00 0.00 0.00 0.00 0.00 0.01 0.01 0.01 0.00 0.00 0.00 0.01 0.01 0.01 0.01 0.02 0.02 0.01 0.01 0.01 0.01 0.01 0.01 0.01 0.01
0.00 0.00 0.00 0.02 0.06 0.07 0.05 0.02 0.01 0.01 0.01 0.02 0.02 0.01 0.02 0.01 0.00 0.00 0.00 0.01 0.01 0.00 0.00 0.00 0.00 0.00 0.00 0.00 0.00 0.00 0.00 0.00 0.00 0.01 0.01 0.01 0.01 0.01 0.02 0.02 0.02 0.01 0.01 0.01 0.01 0.01 0.01 0.01 0.01
0.00 0.00 0.00 0.01 0.01 0.02 0.04 0.04 0.03 0.01 0.01 0.02 0.01 0.02 0.08 0.05 0.01 0.00 0.00 0.01 0.02 0.01 0.00 0.01 0.01 0.01 0.01 0.00 0.01 0.01 0.01 0.00 0.01 0.01 0.01 0.01 0.01 0.01 0.02 0.01 0.01 0.01 0.01 0.01 0.01 0.01 0.02 0.02 0.01
0.00 0.00 0.00 0.00 0.01 0.01 0.01 0.01 0.02 0.02 0.01 0.01 0.01 0.04 0.13 0.12 0.01 0.00 0.00 0.01 0.01 0.01 0.01 0.01 0.02 0.04 0.03 0.03 0.03 0.02 0.02 0.01 0.02 0.02 0.02 0.01 0.02 0.03 0.03 0.02 0.01 0.01 0.01 0.01 0.01 0.01 0.02 0.02 0.02
0.00 0.00 0.00 0.00 0.00 0.01 0.00 0.01 0.03 0.01 0.01 0.01 0.00 0.01 0.03 0.03 0.00 0.00 0.01 0.01 0.01 0.01 0.02 0.02 0.04 0.05 0.06 0.06 0.06 0.05 0.04 0.03 0.03 0.05 0.05 0.04 0.06 0.09 0.09 0.05 0.04 0.03 0.02 0.02 0.01 0.01 0.02 0.03 0.03
0.00 0.00 0.00 0.00 0.00 0.00 0.00 0.00 0.01 0.02 0.03 0.04 0.04 0.02 0.00 0.00 0.00 0.01 0.01 0.01 0.01 0.01 0.01 0.02 0.05 0.05 0.04 0.05 0.10 0.09 0.08 0.10 0.07 0.12 0.12 0.13 0.15 0.14 0.12 0.14 0.09 0.06 0.04 0.03 0.04 0.04 0.04 0.04 0.05
0.00 0.00 0.00 0.00 0.00 0.00 0.00 0.01 0.02 0.03 0.10 0.15 0.15 0.04 0.00 0.00 0.01 0.02 0.02 0.02 0.01 0.01 0.01 0.01 0.02 0.02 0.04 0.06 0.07 0.08 0.10 0.15 0.14 0.14 0.18 0.21 0.21 0.16 0.14 0.16 0.14 0.09 0.07 0.08 0.09 0.08 0.06 0.08 0.10
0.00 0.00 0.00 0.00 0.00 0.00 0.01 0.03 0.07 0.07 0.12 0.17 0.19 0.07 0.01 0.01 0.08 0.11 0.08 0.04 0.03 0.03 0.04 0.04 0.02 0.03 0.06 0.07 0.09 0.08 0.09 0.12 0.13 0.18 0.18 0.23 0.23 0.20 0.19 0.19 0.17 0.15 0.13 0.15 0.17 0.18 0.15 0.14 0.11
0.00 0.00 0.00 0.00 0.00 0.00 0.02 0.04 0.04 0.04 0.08 0.09 0.07 0.03 0.02 0.03 0.09 0.10 0.06 0.07 0.06 0.05 0.06 0.08 0.07 0.05 0.07 0.08 0.10 0.09 0.10 0.11 0.13 0.17 0.18 0.19 0.20 0.21 0.20 0.19 0.20 0.16 0.17 0.19 0.19 0.21 0.22 0.19 0.16
0.00 0.00 0.00 0.00 0.00 0.00 0.01 0.04 0.03 0.03 0.03 0.03 0.04 0.05 0.06 0.11 0.15 0.10 0.05 0.06 0.07 0.09 0.08 0.06 0.05 0.06 0.07 0.07 0.07 0.07 0.08 0.10 0.12 0.16 0.14 0.13 0.16 0.18 0.19 0.19 0.17 0.14 0.14 0.16 0.17 0.17 0.19 0.18 0.16
0.00 0.01 0.03 0.01 0.01 0.00 0.01 0.07 0.12 0.04 0.01 0.02 0.03 0.03 0.04 0.08 0.12 0.08 0.03 0.04 0.06 0.07 0.06 0.04 0.04 0.04 0.06 0.07 0.07 0.07 0.06 0.06 0.08 0.13 0.11 0.09 0.11 0.13 0.15 0.15 0.15 0.14 0.14 0.16 0.16 0.18 0.19 0.17 0.16
0.01 0.02 0.08 0.06 0.02 0.01 0.04 0.23 0.19 0.05 0.05 0.04 0.04 0.05 0.08 0.07 0.04 0.03 0.03 0.05 0.06 0.07 0.06 0.05 0.05 0.07 0.08 0.08 0.08 0.06 0.06 0.06 0.06 0.08 0.08 0.05 0.06 0.09 0.12 0.13 0.13 0.14 0.13 0.15 0.16 0.17 0.17 0.17 0.17
0.01 0.03 0.06 0.09 0.02 0.02 0.10 0.43 0.29 0.08 0.08 0.05 0.04 0.08 0.12 0.11 0.06 0.03 0.04 0.05 0.06 0.04 0.04 0.04 0.05 0.06 0.06 0.06 0.06 0.05 0.05 0.06 0.06 0.06 0.06 0.06 0.06 0.07 0.09 0.10 0.12 0.13 0.12 0.11 0.10 0.15 0.16 0.16 0.16
0.00 0.02 0.04 0.06 0.02 0.02 0.11 0.25 0.19 0.07 0.08 0.05 0.03 0.05 0.08 0.09 0.08 0.07 0.06 0.04 0.03 0.01 0.02 0.02 0.03 0.05 0.05 0.05 0.05 0.04 0.04 0.04 0.04 0.05 0.05 0.03 0.04 0.03 0.04 0.07 0.08 0.09 0.11 0.11 0.11 0.12 0.12 0.11 0.12
0.00 0.01 0.03 0.04 0.02 0.03 0.10 0.16 0.15 0.07 0.04 0.06 0.06 0.06 0.08 0.08 0.07 0.06 0.07 0.09 0.05 0.03 0.03 0.02 0.04 0.05 0.04 0.04 0.04 0.03 0.02 0.02 0.02 0.02 0.02 0.01 0.01 0.01 0.01 0.03 0.04 0.05 0.07 0.08 0.08 0.09 0.09 0.08 0.10
0.00 0.02 0.06 0.06 0.02 0.02 0.06 0.14 0.11 0.05 0.04 0.07 0.06 0.07 0.08 0.08 0.09 0.07 0.05 0.10 0.11 0.06 0.04 0.03 0.04 0.04 0.04 0.04 0.03 0.02 0.01 0.01 0.01 0.01 0.01 0.01 0.01 0.01 0.01 0.02 0.02 0.03 0.04 0.04 0.06 0.07 0.06 0.06 0.09
0.01 0.02 0.06 0.03 0.01 0.03 0.05 0.11 0.09 0.07 0.04 0.05 0.06 0.07 0.08 0.06 0.08 0.07 0.05 0.04 0.05 0.04 0.03 0.03 0.03 0.02 0.03 0.03 0.02 0.01 0.01 0.01 0.01 0.01 0.01 0.01 0.01 0.01 0.01 0.02 0.02 0.02 0.03 0.03 0.04 0.05 0.05 0.05 0.07
0.03 0.01 0.01 0.01 0.03 0.16 0.14 0.23 0.19 0.09 0.06 0.05 0.09 0.10 0.06 0.03 0.03 0.03 0.04 0.05 0.03 0.03 0.01 0.02 0.02 0.01 0.02 0.02 0.02 0.01 0.01 0.01 0.01 0.00 0.00 0.00 0.00 0.00 0.01 0.01 0.01 0.01 0.02 0.03 0.03 0.04 0.05 0.05 0.05
0.01 0.00 0.00 0.01 0.04 0.16 0.14 0.20 0.20 0.10 0.12 0.10 0.08 0.09 0.06 0.03 0.02 0.03 0.02 0.02 0.02 0.02 0.01 0.02 0.02 0.02 0.02 0.02 0.02 0.02 0.03 0.01 0.01 0.01 0.01 0.01 0.00 0.00 0.00 0.00 0.01 0.02 0.02 0.02 0.02 0.03 0.04 0.04 0.05
0.00 0.00 0.02 0.05 0.13 0.23 0.11 0.10 0.17 0.15 0.13 0.17 0.10 0.08 0.08 0.02 0.01 0.01 0.02 0.02 0.02 0.03 0.05 0.02 0.02 0.02 0.01 0.01 0.02 0.02 0.03 0.02 0.02 0.02 0.02 0.02 0.01 0.01 0.00 0.01 0.01 0.02 0.03 0.03 0.03 0.04 0.03 0.04 0.05
0.00 0.04 0.20 0.31 0.39 0.23 0.05 0.04 0.07 0.08 0.05 0.05 0.05 0.04 0.04 0.01 0.01 0.01 0.01 0.01 0.01 0.04 0.03 0.01 0.02 0.02 0.01 0.01 0.02 0.02 0.03 0.03 0.03 0.02 0.02 0.01 0.01 0.01 0.01 0.01 0.03 0.03 0.03 0.03 0.04 0.04 0.04 0.04 0.05
0.01 0.05 0.21 0.25 0.25 0.16 0.05 0.04 0.04 0.02 0.01 0.01 0.01 0.00 0.01 0.00 0.00 0.00 0.00 0.00 0.00 0.01 0.00 0.00 0.01 0.01 0.01 0.01 0.02 0.01 0.02 0.01 0.01 0.02 0.01 0.01 0.01 0.00 0.01 0.01 0.02 0.02 0.02 0.02 0.04 0.04 0.04 0.04 0.04
0.00 0.02 0.02 0.03 0.07 0.12 0.06 0.04 0.04 0.05 0.03 0.01 0.00 0.00 0.00 0.00 0.00 0.00 0.00 0.00 0.00 0.00 0.00 0.00 0.01 0.01 0.01 0.01 0.01 0.01 0.01 0.00 0.00 0.00 0.00 0.00 0.01 0.01 0.00 0.01 0.01 0.02 0.02 0.02 0.03 0.03 0.03 0.04 0.04
0.00 0.00 0.00 0.01 0.05 0.08 0.09 0.07 0.06 0.05 0.01 0.00 0.00 0.00 0.00 0.00 0.00 0.00 0.00 0.00 0.00 0.00 0.00 0.00 0.00 0.00 0.00 0.00 0.00 0.00 0.00 0.00 0.00 0.00 0.00 0.00 0.01 0.01 0.01 0.01 0.01 0.01 0.01 0.01 0.02 0.02 0.02 0.03 0.04
0.00 0.00 0.00 0.00 0.00 0.03 0.10 0.09 0.04 0.02 0.00 0.00 0.00 0.00 0.00 0.00 0.00 0.00 0.00 0.00 0.00 0.00 0.00 0.00 0.00 0.00 0.00 0.00 0.00 0.00 0.00 0.00 0.00 0.00 0.00 0.01 0.01 0.01 0.01 0.01 0.01 0.01 0.01 0.01 0.02 0.01 0.01 0.02 0.02
0.00 0.00 0.00 0.01 0.01 0.01 0.03 0.04 0.03 0.02 0.01 0.00 0.00 0.00 0.00 0.00 0.00 0.00 0.00 0.00 0.00 0.00 0.00 0.00 0.00 0.00 0.00 0.00 0.00 0.00 0.00 0.00 0.00 0.00 0.01 0.01 0.01 0.01 0.01 0.01 0.01 0.01 0.01 0.01 0.02 0.01 0.01 0.02 0.02
MSLP
1008.27 1008.88 1009.54 1010.06 1010.28 1010.11 1009.53 1008.62 1007.55 1006.51 1005.68 1005.19 1005.08 1005.32 1005.80 1006.39 1006.96 1007.41 1007.72 1007.94 1008.14 1008.42 1008.83 1009.40 1010.11 1010.88 1011.62 1012.23 1012.68 1012.96 1013.11 1013.19 1013.30 1013.48 1013.77 1014.15 1014.57 1014.97 1015.31 1015.52 1015.63 1015.65 1015.64 1015.63 1015.66 1015.75 1015.89 1016.05 1016.20
1008.44 1009.17 1009.87 1010.37 1010.50 1010.19 1009.46 1008.42 1007.24 1006.13 1005.27 1004.78 1004.68 1004.93 1005.41 1005.99 1006.53 1006.98 1007.31 1007.58 1007.87 1008.26 1008.80 1009.51 1010.34 1011.19 1011.96 1012.59 1013.02 1013.26 1013.37 1013.43 1013.53 1013.70 1013.99 1014.35 1014.75 1015.11 1015.38 1015.55 1015.61 1015.61 1015.59 1015.62 1015.70 1015.85 1016.05 1016.26 1016.43
1008.74 1009.57 1010.31 1010.77 1010.81 1010.40 1009.56 1008.43 1007.20 1006.07 1005.22 1004.74 1004.65 1004.88 1005.32 1005.83 1006.30 1006.69 1006.99 1007.28 1007.62 1008.10 1008.76 1009.58 1010.50 1011.42 1012.23 1012.86 1013.28 1013.50 1013.60 1013.65 1013.74 1013.92 1014.20 1014.54 1014.90 1015.21 1015.42 1015.52 1015.54 1015.53 1015.53 1015.60 1015.75 1015.98 1016.23 1016.48 1016.67
1009.10 1009.99 1010.72 1011.12 1011.09 1010.59 1009.70 1008.56 1007.34 1006.27 1005.48 1005.05 1004.97 1005.17 1005.53 1005.93 1006.29 1006.57 1006.81 1007.07 1007.43 1007.97 1008.71 1009.62 1010.61 1011.57 1012.40 1013.03 1013.43 1013.63 1013.72 1013.78 1013.88 1014.08 1014.36 1014.70 1015.03 1015.29 1015.45 1015.50 1015.49 1015.47 1015.50 1015.61 1015.83 1016.12 1016.44 1016.72 1016.91
1009.41 1010.29 1010.96 1011.28 1011.17 1010.63 1009.75 1008.66 1007.54 1006.59 1005.92 1005.58 1005.53 1005.70 1005.98 1006.25 1006.46 1006.61 1006.74 1006.95 1007.31 1007.88 1008.67 1009.63 1010.66 1011.64 1012.47 1013.07 1013.44 1013.63 1013.72 1013.78 1013.92 1014.14 1014.45 1014.80 1015.12 1015.35 1015.47 1015.50 1015.47 1015.45 1015.50 1015.66 1015.93 1016.28 1016.63 1016.92 1017.11
1009.56 1010.35 1010.91 1011.13 1010.95 1010.39 1009.55 1008.58 1007.64 1006.87 1006.38 1006.16 1006.18 1006.33 1006.52 1006.67 1006.73 1006.74 1006.77 1006.91 1007.25 1007.84 1008.66 1009.65 1010.69 1011.66 1012.45 1013.01 1013.34 1013.50 1013.58 1013.67 1013.83 1014.10 1014.44 1014.82 1015.15 1015.38 1015.50 1015.51 1015.47 1015.46 1015.54 1015.73 1016.04 1016.41 1016.78 1017.07 1017.23
1009.51 1010.14 1010.53 1010.61 1010.35 1009.79 1009.04 1008.23 1007.50 1006.97 1006.68 1006.62 1006.73 1006.89 1007.03 1007.07 1007.01 1006.91 1006.85 1006.94 1007.26 1007.85 1008.69 1009.69 1010.72 1011.66 1012.40 1012.90 1013.18 1013.30 1013.36 1013.45 1013.64 1013.95 1014.34 1014.76 1015.12 1015.38 1015.50 1015.52 1015.49 1015.49 1015.58 1015.80 1016.12 1016.50 1016.87 1017.14 1017.26
1009.25 1009.68 1009.88 1009.81 1009.46 1008.91 1008.26 1007.62 1007.12 1006.83 1006.76 1006.88 1007.09 1007.29 1007.40 1007.38 1007.24 1007.07 1006.95 1007.02 1007.35 1007.95 1008.81 1009.80 1010.81 1011.70 1012.38 1012.81 1013.02 1013.09 1013.12 1013.20 1013.41 1013.75 1014.18 1014.64 1015.04 1015.33 1015.47 1015.51 1015.50 1015.51 1015.61 1015.83 1016.16 1016.54 1016.89 1017.14 1017.23
1008.87 1009.08 1009.09 1008.87 1008.45 1007.91 1007.35 1006.87 1006.58 1006.51 1006.64 1006.92 1007.24 1007.50 1007.62 1007.59 1007.42 1007.23 1007.11 1007.19 1007.54 1008.17 1009.04 1010.03 1011.00 1011.84 1012.45 1012.80 1012.93 1012.94 1012.92 1012.99 1013.19 1013.54 1014.00 1014.49 1014.92 1015.24 1015.41 1015.47 1015.47 1015.49 1015.60 1015.82 1016.14 1016.51 1016.85 1017.08 1017.15
1008.48 1008.51 1008.36 1008.02 1007.54 1007.01 1006.52 1006.18 1006.04 1006.14 1006.43 1006.84 1007.25 1007.57 1007.74 1007.74 1007.60 1007.44 1007.36 1007.49 1007.88 1008.53 1009.40 1010.38 1011.31 1012.09 1012.62 1012.90 1012.96 1012.90 1012.83 1012.85 1013.04 1013.38 1013.84 1014.33 1014.78 1015.12 1015.31 1015.39 1015.41 1015.44 1015.55 1015.76 1016.07 1016.43 1016.76 1016.99 1017.07
1008.20 1008.13 1007.88 1007.47 1006.96 1006.45 1006.02 1005.75 1005.71 1005.91 1006.29 1006.78 1007.26 1007.64 1007.87 1007.92 1007.86 1007.77 1007.76 1007.95 1008.38 1009.05 1009.91 1010.85 1011.73 1012.43 1012.89 1013.10 1013.09 1012.97 1012.85 1012.83 1012.97 1013.28 1013.71 1014.19 1014.63 1014.97 1015.18 1015.28 1015.31 1015.34 1015.45 1015.66 1015.96 1016.32 1016.66 1016.90 1017.00
1008.15 1008.05 1007.78 1007.37 1006.88 1006.40 1006.00 1005.77 1005.76 1005.98 1006.38 1006.89 1007.40 1007.82 1008.11 1008.25 1008.27 1008.28 1008.35 1008.59 1009.04 1009.71 1010.53 1011.40 1012.21 1012.83 1013.22 1013.36 1013.31 1013.14 1012.97 1012.90 1012.98 1013.24 1013.62 1014.06 1014.48 1014.81 1015.02 1015.12 1015.17 1015.21 1015.32 1015.53 1015.83 1016.18 1016.53 1016.80 1016.94
1008.36 1008.33 1008.13 1007.79 1007.37 1006.92 1006.55 1006.31 1006.27 1006.45 1006.80 1007.26 1007.76 1008.20 1008.54 1008.76 1008.89 1008.98 1009.13 1009.40 1009.85 1010.46 1011.20 1011.98 1012.68 1013.22 1013.54 1013.63 1013.54 1013.34 1013.14 1013.02 1013.05 1013.24 1013.55 1013.93 1014.31 1014.62 1014.83 1014.94 1015.00 1015.05 1015.16 1015.37 1015.66 1016.02 1016.38 1016.68 1016.86
1008.83 1008.94 1008.89 1008.69 1008.37 1007.99 1007.64 1007.37 1007.25 1007.31 1007.55 1007.92 1008.36 1008.80 1009.18 1009.47 1009.68 1009.85 1010.05 1010.32 1010.72 1011.24 1011.85 1012.50 1013.08 1013.52 1013.78 1013.84 1013.73 1013.53 1013.31 1013.16 1013.13 1013.25 1013.49 1013.80 1014.12 1014.40 1014.60 1014.72 1014.80 1014.87 1014.99 1015.18 1015.47 1015.82 1016.18 1016.50 1016.72
1009.45 1009.76 1009.90 1009.89 1009.72 1009.43 1009.10 1008.78 1008.55 1008.47 1008.56 1008.80 1009.15 1009.55 1009.95 1010.30 1010.58 1010.81 1011.02 1011.26 1011.57 1011.96 1012.42 1012.91 1013.36 1013.70 1013.91 1013.95 1013.86 1013.67 1013.46 1013.29 1013.21 1013.26 1013.42 1013.65 1013.92 1014.16 1014.35 1014.49 1014.59 1014.68 1014.80 1014.99 1015.26 1015.58 1015.93 1016.25 1016.50
1010.10 1010.61 1010.99 1011.19 1011.20 1011.02 1010.72 1010.35 1010.00 1009.76 1009.67 1009.76 1010.00 1010.34 1010.74 1011.13 1011.46 1011.73 1011.94 1012.13 1012.34 1012.58 1012.87 1013.19 1013.50 1013.76 1013.93 1013.98 1013.92 1013.77 1013.58 1013.40 1013.29 1013.27 1013.35 1013.51 1013.71 1013.92 1014.11 1014.26 1014.38 1014.50 1014.63 1014.81 1015.04 1015.33 1015.64 1015.94 1016.18
1010.63 1011.35 1011.96 1012.40 1012.60 1012.55 1012.29 1011.88 1011.42 1011.01 1010.74 1010.65 1010.77 1011.04 1011.42 1011.83 1012.21 1012.51 1012.72 1012.85 1012.95 1013.05 1013.19 1013.35 1013.55 1013.74 1013.89 1013.97 1013.96 1013.87 1013.71 1013.54 1013.40 1013.32 1013.31 1013.39 1013.53 1013.71 1013.90 1014.07 1014.22 1014.36 1014.50 1014.66 1014.86 1015.09 1015.34 1015.60 1015.81
1010.93 1011.84 1012.68 1013.35 1013.76 1013.85 1013.65 1013.21 1012.64 1012.07 1011.62 1011.37 1011.35 1011.54 1011.90 1012.32 1012.73 1013.06 1013.28 1013.38 1013.40 1013.39 1013.39 1013.44 1013.55 1013.71 1013.86 1013.99 1014.04 1014.01 1013.91 1013.75 1013.58 1013.43 1013.35 1013.35 1013.43 1013.58 1013.76 1013.95 1014.14 1014.30 1014.45 1014.59 1014.74 1014.91 1015.09 1015.28 1015.45
1010.96 1012.04 1013.10 1013.99 1014.60 1014.85 1014.71 1014.26 1013.61 1012.89 1012.26 1011.84 1011.68 1011.79 1012.10 1012.54 1012.99 1013.36 1013.60 1013.69 1013.68 1013.60 1013.53 1013.51 1013.57 1013.71 1013.90 1014.08 1014.21 1014.26 1014.20 1014.05 1013.86 1013.66 1013.50 1013.43 1013.45 1013.55 1013.73 1013.94 1014.15 1014.34 1014.49 1014.61 1014.72 1014.82 1014.92 1015.03 1015.15
1010.73 1011.95 1013.21 1014.32 1015.13 1015.52 1015.47 1015.02 1014.29 1013.44 1012.64 1012.06 1011.76 1011.77 1012.04 1012.48 1012.97 1013.40 1013.70 1013.83 1013.82 1013.74 1013.64 1013.60 1013.65 1013.81 1014.04 1014.29 1014.50 1014.61 1014.60 1014.47 1014.26 1014.01 1013.78 1013.63 1013.59 1013.65 1013.81 1014.03 1014.26 1014.47 1014.63 1014.73 1014.80 1014.83 1014.87 1014.91 1014.96
1010.32 1011.68 1013.11 1014.42 1015.41 1015.94 1015.97 1015.52 1014.73 1013.76 1012.81 1012.07 1011.64 1011.55 1011.78 1012.22 1012.75 1013.25 1013.62 1013.82 1013.87 1013.82 1013.75 1013.72 1013.81 1014.00 1014.28 1014.60 1014.87 1015.05 1015.09 1014.98 1014.75 1014.46 1014.17 1013.95 1013.84 1013.87 1014.00 1014.21 1014.45 1014.67 1014.83 1014.93 1014.96 1014.94 1014.92 1014.90 1014.91
1009.85 1011.33 1012.91 1014.38 1015.52 1016.17 1016.27 1015.83 1014.98 1013.91 1012.84 1011.95 1011.39 1011.20 1011.37 1011.81 1012.39 1012.96 1013.42 1013.72 1013.86 1013.88 1013.87 1013.89 1014.01 1014.24 1014.58 1014.94 1015.28 1015.51 1015.59 1015.50 1015.26 1014.95 1014.62 1014.35 1014.18 1014.16 1014.25 1014.45 1014.67 1014.89 1015.05 1015.13 1015.14 1015.09 1015.03 1014.97 1014.94
1009.46 1011.02 1012.71 1014.29 1015.54 1016.27 1016.42 1015.99 1015.10 1013.95 1012.77 1011.76 1011.09 1010.81 1010.94 1011.36 1011.97 1012.62 1013.17 1013.58 1013.82 1013.93 1013.98 1014.06 1014.22 1014.49 1014.85 1015.25 1015.63 1015.90 1016.02 1015.96 1015.74 1015.42 1015.06 1014.75 1014.54 1014.47 1014.52 1014.68 1014.88 1015.08 1015.22 1015.29 1015.28 1015.22 1015.12 1015.04 1015.00
1009.24 1010.83 1012.57 1014.20 1015.49 1016.27 1016.44 1016.01 1015.10 1013.89 1012.64 1011.55 1010.79 1010.45 1010.52 1010.94 1011.58 1012.28 1012.92 1013.43 1013.76 1013.96 1014.08 1014.20 1014.38 1014.67 1015.04 1015.46 1015.85 1016.16 1016.31 1016.29 1016.10 1015.79 1015.44 1015.11 1014.87 1014.75 1014.75 1014.86 1015.02 1015.18 1015.30 1015.35 1015.32 1015.24 1015.14 1015.05 1015.01
1009.22 1010.79 1012.48 1014.09 1015.36 1016.13 1016.29 1015.86 1014.94 1013.72 1012.44 1011.31 1010.51 1010.13 1010.18 1010.60 1011.25 1012.00 1012.71 1013.29 1013.70 1013.97 1014.14 1014.29 1014.48 1014.76 1015.12 1015.53 1015.92 1016.24 1016.43 1016.45 1016.30 1016.04 1015.71 1015.39 1015.13 1014.97 1014.92 1014.97 1015.07 1015.18 1015.26 1015.28 1015.23 1015.14 1015.04 1014.95 1014.90
1009.38 1010.83 1012.41 1013.90 1015.08 1015.78 1015.92 1015.48 1014.58 1013.39 1012.14 1011.04 1010.25 1009.87 1009.92 1010.34 1011.02 1011.80 1012.55 1013.19 1013.66 1013.97 1014.17 1014.33 1014.51 1014.76 1015.08 1015.46 1015.84 1016.17 1016.38 1016.44 1016.35 1016.14 1015.86 1015.55 1015.29 1015.10 1015.00 1014.99 1015.02 1015.07 1015.10 1015.09 1015.02 1014.92 1014.81 1014.72 1014.68
1009.64 1010.90 1012.28 1013.57 1014.59 1015.18 1015.26 1014.84 1013.99 1012.89 1011.73 1010.71 1009.99 1009.67 1009.75 1010.19 1010.87 1011.67 1012.46 1013.12 1013.63 1013.97 1014.18 1014.34 1014.49 1014.70 1014.98 1015.31 1015.66 1015.98 1016.21 1016.31 1016.28 1016.12 1015.89 1015.62 1015.37 1015.16 1015.02 1014.95 1014.92 1014.90 1014.88 1014.82 1014.74 1014.62 1014.51 1014.41 1014.35
1009.88 1010.89 1011.99 1013.03 1013.84 1014.29 1014.31 1013.91 1013.16 1012.19 1011.18 1010.32 1009.73 1009.50 1009.64 1010.12 1010.82 1011.63 1012.41 1013.10 1013.62 1013.97 1014.20 1014.34 1014.47 1014.63 1014.85 1015.13 1015.44 1015.73 1015.96 1016.10 1016.11 1016.01 1015.83 1015.61 1015.37 1015.16 1014.99 1014.87 1014.78 1014.71 1014.64 1014.55 1014.44 1014.31 1014.18 1014.07 1013.99
1010.02 1010.73 1011.51 1012.25 1012.82 1013.13 1013.10 1012.74 1012.11 1011.32 1010.53 1009.87 1009.46 1009.36 1009.59 1010.11 1010.82 1011.63 1012.41 1013.10 1013.62 1013.99 1014.22 1014.36 1014.46 1014.59 1014.76 1014.99 1015.25 1015.50 1015.72 1015.86 1015.90 1015.84 1015.71 1015.52 1015.31 1015.10 1014.92 1014.77 1014.65 1014.54 1014.43 1014.31 1014.18 1014.03 1013.88 1013.75 1013.64
1009.99 1010.39 1010.85 1011.29 1011.63 1011.78 1011.71 1011.41 1010.94 1010.37 1009.82 1009.40 1009.19 1009.24 1009.57 1010.13 1010.86 1011.66 1012.43 1013.10 1013.62 1014.00 1014.24 1014.39 1014.49 1014.60 1014.73 1014.91 1015.11 1015.32 1015.50 1015.62 1015.67 1015.64 1015.53 1015.38 1015.19 1015.00 1014.83 1014.67 1014.53 1014.40 1014.27 1014.14 1013.99 1013.83 1013.66 1013.50 1013.35
Thickness
5846 5847 5847 5841 5823 5807 5803 5835 5860 5858 5863 5879 5881 5870 5854 5843 5830 5815 5848 5860 5850 5837 5826 5819 5814 5809 5805 5801 5798 5794 5791 5788 5785 5782 5779 5776 5774 5772 5770 5768 5766 5765 5763 5762 5760 5759 5758 5757 5756
5850 5852 5847 5835 5813 5791 5802 5834 5847 5860 5872 5882 5878 5868 5852 5844 5852 5848 5853 5854 5847 5835 5825 5818 5811 5807 5803 5799 5795 5792 5789 5786 5783 5780 5777 5774 5772 5770 5768 5766 5764 5763 5761 5760 5759 5758 5756 5755 5754
5849 5853 5839 5832 5820 5807 5812 5838 5848 5867 5880 5877 5867 5863 5850 5842 5851 5851 5854 5854 5844 5833 5823 5813 5809 5804 5800 5796 5792 5789 5786 5783 5780 5778 5775 5773 5770 5768 5766 5764 5763 5761 5760 5758 5757 5756 5755 5753 5752
5846 5846 5839 5829 5823 5836 5838 5849 5856 5863 5870 5875 5864 5845 5843 5853 5855 5855 5857 5852 5841 5832 5821 5810 5806 5801 5797 5793 5790 5786 5783 5780 5778 5775 5773 5770 5768 5766 5764 5763 5761 5760 5758 5756 5755 5753 5752 5751 5750
5844 5835 5824 5818 5825 5838 5845 5852 5856 5853 5857 5863 5855 5831 5829 5849 5859 5857 5855 5849 5841 5831 5818 5809 5803 5798 5794 5790 5787 5783 5780 5777 5775 5772 5770 5768 5766 5764 5762 5760 5759 5757 5755 5754 5752 5751 5750 5749 5748
5832 5833 5814 5813 5827 5838 5844 5851 5852 5851 5854 5860 5849 5831 5825 5845 5849 5851 5852 5847 5842 5830 5818 5806 5800 5796 5791 5787 5784 5781 5778 5775 5772 5770 5767 5765 5763 5761 5760 5758 5756 5754 5753 5752 5750 5748 5747 5746 5746
5821 5818 5812 5822 5830 5834 5841 5849 5844 5846 5847 5852 5851 5827 5821 5831 5843 5850 5848 5844 5838 5828 5816 5806 5799 5793 5789 5785 5782 5778 5775 5772 5769 5767 5765 5762 5761 5759 5757 5755 5753 5752 5751 5749 5748 5746 5745 5744 5743
5831 5816 5811 5823 5832 5838 5848 5851 5850 5844 5843 5857 5854 5823 5810 5823 5840 5845 5842 5838 5830 5823 5815 5806 5799 5793 5788 5783 5779 5775 5772 5769 5767 5764 5762 5759 5757 5756 5755 5753 5751 5749 5748 5747 5745 5743 5742 5741 5740
5831 5803 5800 5821 5832 5840 5845 5842 5846 5853 5848 5846 5846 5836 5828 5834 5839 5834 5830 5826 5820 5815 5812 5806 5799 5792 5788 5784 5778 5773 5770 5767 5764 5761 5759 5756 5755 5754 5752 5750 5748 5746 5745 5744 5742 5741 5740 5738 5738
5817 5795 5808 5833 5841 5839 5838 5834 5838 5839 5833 5827 5825 5829 5833 5832 5829 5823 5818 5813 5809 5805 5804 5802 5796 5791 5787 5784 5776 5773 5769 5765 5762 5760 5756 5753 5752 5751 5750 5748 5745 5743 5742 5741 5739 5738 5737 5736 5737
5814 5804 5817 5830 5840 5839 5832 5834 5841 5831 5814 5812 5808 5813 5824 5823 5819 5813 5810 5808 5803 5801 5799 5796 5791 5787 5784 5780 5773 5771 5767 5763 5759 5756 5753 5750 5748 5747 5746 5744 5741 5740 5739 5738 5737 5735 5734 5735 5736
5811 5813 5819 5824 5832 5829 5826 5828 5826 5822 5811 5816 5813 5812 5816 5814 5810 5804 5799 5800 5797 5793 5791 5790 5785 5780 5776 5773 5770 5766 5762 5759 5756 5752 5748 5745 5743 5742 5741 5739 5738 5736 5737 5736 5735 5733 5732 5732 5734
5806 5810 5818 5823 5825 5824 5822 5817 5813 5812 5816 5816 5814 5811 5807 5806 5802 5800 5799 5794 5788 5784 5783 5780 5777 5772 5768 5764 5761 5760 5757 5754 5752 5747 5743 5741 5740 5739 5738 5735 5733 5733 5733 5733 5731 5730 5730 5729 5730
5807 5810 5812 5815 5815 5818 5808 5803 5802 5797 5809 5806 5801 5798 5799 5797 5794 5790 5789 5786 5783 5778 5775 5775 5770 5766 5762 5757 5754 5753 5751 5748 5746 5743 5740 5737 5735 5734 5732 5731 5731 5731 5730 5729 5728 5727 5726 5726 5727
5810 5796 5795 5801 5805 5808 5802 5783 5783 5793 5800 5796 5793 5792 5791 5790 5789 5785 5783 5780 5777 5773 5770 5769 5766 5762 5756 5752 5750 5748 5746 5743 5742 5738 5736 5733 5731 5729 5728 5727 5727 5727 5726 5725 5724 5723 5723 5723 5723
5798 5783 5769 5786 5796 5800 5784 5753 5768 5784 5785 5784 5785 5784 5781 5781 5782 5781 5778 5775 5772 5768 5765 5763 5762 5756 5751 5747 5745 5743 5740 5738 5737 5734 5732 5729 5727 5725 5724 5723 5722 5721 5722 5721 5720 5719 5718 5718 5718
5781 5766 5761 5772 5792 5789 5771 5742 5754 5773 5778 5776 5777 5776 5774 5770 5771 5774 5773 5770 5767 5763 5760 5756 5754 5750 5747 5744 5741 5739 5736 5734 5732 5730 5727 5724 5722 5720 5719 5718 5717 5717 5716 5716 5716 5715 5713 5712 5713
5775 5773 5768 5766 5785 5781 5765 5748 5756 5769 5774 5773 5772 5770 5767 5763 5763 5767 5766 5764 5762 5759 5756 5752 5748 5745 5742 5740 5737 5735 5733 5731 5729 5726 5723 5720 5718 5716 5714 5714 5712 5712 5711 5711 5710 5709 5709 5708 5708
5796 5781 5769 5771 5786 5774 5760 5751 5754 5767 5771 5769 5767 5764 5759 5758 5761 5763 5762 5759 5755 5752 5749 5746 5743 5740 5737 5734 5730 5727 5725 5725 5724 5722 5719 5717 5714 5711 5709 5708 5707 5706 5705 5704 5704 5703 5702 5702 5704
5795 5776 5770 5777 5789 5776 5759 5754 5756 5765 5770 5766 5763 5761 5757 5753 5754 5756 5756 5755 5750 5747 5744 5742 5739 5736 5733 5729 5727 5724 5722 5721 5721 5718 5715 5712 5709 5706 5705 5702 5700 5700 5698 5697 5697 5696 5694 5695 5698
5788 5777 5772 5772 5779 5774 5757 5744 5751 5760 5767 5764 5761 5759 5757 5753 5750 5751 5752 5751 5748 5744 5741 5740 5735 5732 5729 5726 5724 5721 5718 5716 5714 5712 5709 5707 5705 5702 5699 5696 5694 5692 5691 5690 5689 5689 5687 5686 5689
5779 5791 5786 5777 5762 5740 5737 5717 5737 5749 5753 5757 5755 5754 5754 5754 5752 5750 5750 5748 5746 5742 5741 5736 5732 5728 5725 5722 5718 5713 5710 5706 5706 5705 5704 5702 5700 5698 5695 5692 5689 5686 5684 5682 5682 5682 5680 5679 5678
5793 5799 5785 5770 5750 5729 5729 5716 5723 5741 5737 5745 5751 5754 5756 5754 5753 5751 5749 5746 5745 5744 5740 5735 5730 5725 5721 5718 5714 5709 5705 5702 5701 5699 5697 5695 5694 5693 5691 5688 5684 5680 5677 5676 5674 5673 5672 5672 5671
5807 5793 5773 5753 5730 5708 5728 5724 5717 5731 5740 5743 5749 5756 5757 5756 5755 5752 5750 5747 5744 5742 5738 5733 5726 5721 5718 5714 5710 5705 5700 5696 5693 5691 5689 5688 5688 5687 5685 5682 5678 5674 5671 5668 5667 5666 5665 5664 5663
5798 5769 5728 5705 5691 5704 5742 5734 5731 5753 5759 5757 5754 5758 5760 5759 5755 5751 5747 5744 5741 5739 5735 5730 5723 5718 5715 5710 5706 5701 5697 5693 5689 5686 5684 5682 5680 5679 5676 5673 5669 5666 5663 5661 5660 5658 5657 5656 5655
5790 5771 5732 5710 5702 5718 5743 5737 5748 5769 5773 5771 5769 5767 5763 5760 5757 5753 5749 5745 5741 5738 5733 5728 5722 5715 5711 5706 5702 5698 5694 5690 5687 5682 5678 5676 5673 5671 5668 5665 5662 5659 5657 5655 5653 5650 5649 5649 5648
5789 5780 5779 5753 5735 5721 5733 5744 5755 5770 5771 5772 5771 5767 5763 5761 5758 5754 5751 5747 5742 5737 5732 5727 5720 5713 5708 5703 5699 5695 5691 5686 5682 5678 5674 5672 5668 5665 5662 5658 5654 5652 5649 5647 5645 5643 5641 5641 5640
5805 5798 5785 5767 5739 5719 5721 5729 5740 5754 5761 5768 5769 5766 5765 5762 5759 5754 5751 5746 5741 5736 5730 5725 5718 5712 5706 5701 5696 5694 5688 5683 5679 5675 5670 5666 5662 5658 5654 5651 5648 5645 5642 5639 5637 5635 5634 5632 5631
5793 5792 5785 5780 5773 5739 5713 5727 5765 5765 5769 5770 5772 5771 5768 5764 5760 5755 5751 5746 5740 5735 5729 5723 5717 5711 5705 5699 5694 5689 5685 5680 5676 5671 5667 5663 5658 5653 5649 5645 5641 5638 5634 5632 5629 5627 5625 5624 5622
5794 5789 5784 5765 5761 5766 5747 5739 5781 5778 5779 5777 5775 5774 5771 5766 5762 5757 5751 5744 5738 5732 5726 5720 5715 5709 5704 5699 5693 5688 5683 5677 5672 5667 5663 5658 5653 5648 5644 5640 5635 5631 5628 5625 5622 5619 5617 5615 5613